Location: Ottawa
(45.4170°N, 75.7000°W)
Time: 08:49:53
(UTC-04:00)

Amateur Radio Satellites - All Passes

Search period start: 19 October 2017 08:19
Search period end: 20 October 2017 08:19
Location: Ottawa, 45.4170°N, 75.7000°W

Satellite Date Start Highest point End Downlink Frequencies (MHz)
Time Altitude Azimuth
ZACube-1 19 Oct 08:30:49 08:34:11 21° 92° (E) 08:37:29 437.345
XW-2A 19 Oct 08:34:21 08:37:35 44° 99° (E) 08:40:47 145.665 - 145.685
SO-50 19 Oct 08:43:08 08:47:25 43° 313° (NW) 08:51:44 436.795
XW-2C 19 Oct 08:43:58 08:45:05 11° 299° (WNW) 08:46:13 145.795 - 145.815
UWE-3 19 Oct 08:49:15 08:53:46 61° 100° (E) 08:58:07 435.000/436.395/437.385
UNISAT 6 19 Oct 08:50:14 08:53:32 19° 62° (ENE) 08:56:51 437.425
RS-15 19 Oct 08:57:06 09:08:54 53° 40° (NE) 09:20:03 29.354- 29.394
CUTE 1.7 + AOD 2 19 Oct 08:59:06 09:02:56 35° 290° (WNW) 09:06:46 437.475
FO-29 19 Oct 09:04:37 09:09:49 87° 80° (E) 09:15:28 435.910
TIGRISAT 19 Oct 09:04:55 09:08:38 24° 64° (ENE) 09:12:24 435.000
NO-84 19 Oct 09:06:47 09:10:13 26° 16° (NNE) 09:13:26 435.350 FM
SEEDS 19 Oct 09:08:53 09:12:51 44° 289° (WNW) 09:16:49 437.485
Oscar 11 19 Oct 09:09:44 09:13:37 32° 96° (E) 09:17:29 .
HO-68 19 Oct 09:19:45 09:26:40 51° 295° (WNW) 09:33:33 435.675
YUBILEINY 19 Oct 09:21:00 09:28:58 43° 87° (E) 09:36:59 435.215
CUTE-I 19 Oct 09:35:21 09:37:14 12° 306° (NW) 09:39:08 437.470
AAUSAT CUBESAT 2 19 Oct 09:37:03 09:41:01 47° 288° (WNW) 09:44:59 437.432
PCSat 19 Oct 09:37:40 09:43:05 76° 303° (WNW) 09:48:33 145.827
DELFI C3 19 Oct 09:43:42 09:46:15 16° 92° (E) 09:48:48 145.870
AO-73 19 Oct 09:45:04 09:49:28 73° 286° (WNW) 09:53:44 145.935
CUBEBUG 2 19 Oct 09:45:10 09:48:57 25° 295° (WNW) 09:52:39 437.445
ZACube-1 19 Oct 10:06:30 10:10:38 39° 290° (WNW) 10:14:39 437.345
XW-2A 19 Oct 10:08:30 10:09:54 12° 296° (WNW) 10:11:17 145.665 - 145.685
ISS 19 Oct 10:17:15 10:19:09 15° 134° (SE) 10:21:03 437.550
PRISM 19 Oct 10:19:49 10:23:48 64° 74° (ENE) 10:27:51 437.425
UNISAT 6 19 Oct 10:25:16 10:29:49 54° 260° (W) 10:34:27 437.425
UWE-3 19 Oct 10:26:52 10:29:42 17° 299° (WNW) 10:32:30 435.000/436.395/437.385
SO-50 19 Oct 10:27:36 10:29:03 11° 335° (NNW) 10:30:32 436.795
AIST 2D 19 Oct 10:29:44 10:32:06 17° 66° (ENE) 10:34:29 435.315
QB50P2 19 Oct 10:30:47 10:31:46 11° 58° (ENE) 10:32:45 145.880/145.840
TIGRISAT 19 Oct 10:40:40 10:45:04 42° 263° (W) 10:49:32 435.000
NO-84 19 Oct 10:44:11 10:48:04 89° 36° (NE) 10:51:36 435.350 FM
Oscar 11 19 Oct 10:46:04 10:49:38 26° 293° (WNW) 10:53:10 .
DUCHIFAT 1 19 Oct 10:46:38 10:47:52 11° 59° (ENE) 10:49:06 145.980
EO-88 19 Oct 10:47:05 10:50:35 43° 99° (E) 10:54:03 145.990 - 145.960
Max Valier Satellite 19 Oct 10:53:44 10:57:26 76° 102° (ESE) 11:01:05 145.860
FO-29 19 Oct 10:53:58 10:55:56 12° 275° (W) 10:57:57 435.910
RS-15 19 Oct 11:10:07 11:21:40 59° 246° (WSW) 11:32:35 29.354- 29.394
HO-68 19 Oct 11:10:14 11:12:46 12° 316° (NW) 11:15:18 435.675
YUBILEINY 19 Oct 11:17:26 11:25:41 47° 288° (WNW) 11:34:03 435.215
DELFI C3 19 Oct 11:17:26 11:21:12 43° 288° (WNW) 11:24:57 145.870
nSIGHT-1 19 Oct 11:22:28 11:25:37 61° 147° (SSE) 11:28:47 .
PCSat 19 Oct 11:23:47 11:27:25 18° 325° (NW) 11:31:04 145.827
EO-79 19 Oct 11:38:16 11:42:19 44° 71° (ENE) 11:46:25 145.935-145.965
LO-87 19 Oct 11:41:07 11:44:12 25° 95° (E) 11:47:15 145.935 - 145.965
POLYITAN 1 19 Oct 11:42:32 11:46:40 49° 72° (ENE) 11:50:50 437.675
Oscar 19 19 Oct 11:51:43 11:52:56 11° 54° (NE) 11:54:09 437.125/150
ISS 19 Oct 11:51:57 11:55:13 87° 334° (NNW) 11:58:29 437.550
PRISM 19 Oct 11:58:02 11:59:30 12° 270° (W) 12:00:59 437.425
AIST 2D 19 Oct 12:01:52 12:05:03 32° 263° (W) 12:08:15 435.315
QB50P2 19 Oct 12:02:34 12:06:51 89° 70° (ENE) 12:11:10 145.880/145.840
BEESAT 3 19 Oct 12:06:58 12:09:45 18° 112° (ESE) 12:12:32 437.485
NANOSAT C BR1 19 Oct 12:07:08 12:11:23 81° 73° (ENE) 12:15:40 145.865
Gurwin Techsat 1B 19 Oct 12:12:14 12:14:17 12° 54° (NE) 12:16:22 435.225
DUCHIFAT 1 19 Oct 12:18:36 12:22:51 87° 256° (WSW) 12:27:08 145.980
EO-88 19 Oct 12:21:49 12:23:53 15° 296° (WNW) 12:25:56 145.990 - 145.960
NO-84 19 Oct 12:23:13 12:24:47 12° 236° (WSW) 12:26:17 435.350 FM
BUGSAT 1 19 Oct 12:31:41 12:35:30 35° 69° (ENE) 12:39:22 437.445
VELOX 1 19 Oct 12:32:07 12:33:47 12° 89° (E) 12:35:28 145.980
ESTCUBE 1 19 Oct 12:34:59 12:39:28 71° 103° (ESE) 12:43:56 437.505/2401.250
nSIGHT-1 19 Oct 12:59:07 13:02:04 33° 346° (NNW) 13:05:01 .
LO-87 19 Oct 13:14:34 13:17:30 23° 292° (WNW) 13:20:26 145.935 - 145.965
EO-79 19 Oct 13:15:19 13:18:18 18° 268° (W) 13:21:18 145.935-145.965
POLYITAN 1 19 Oct 13:19:57 13:22:43 17° 269° (W) 13:25:31 437.675
AO-7 19 Oct 13:23:39 13:29:18 21° 46° (NE) 13:34:56 .
BEESAT 2 19 Oct 13:23:39 13:27:18 34° 117° (ESE) 13:30:59 435.950
Oscar 19 19 Oct 13:26:10 13:31:17 68° 73° (ENE) 13:36:26 437.125/150
RS-15 19 Oct 13:27:15 13:31:07 12° 269° (W) 13:34:57 29.354- 29.394
ISS 19 Oct 13:29:05 13:32:00 29° 351° (N) 13:34:56 437.550
SPROUT 19 Oct 13:30:35 13:34:53 71° 101° (ESE) 13:39:10 437.525
M-CUBED/EXP-1 PRIME 19 Oct 13:35:36 13:38:59 69° 252° (WSW) 13:42:17 437.505
DX 1 19 Oct 13:41:21 13:44:04 16° 91° (E) 13:46:47 434.975-435.025
BEESAT 3 19 Oct 13:43:02 13:46:56 49° 310° (NW) 13:50:53 437.485
NANOSAT C BR1 19 Oct 13:47:34 13:47:39 10° 273° (W) 13:47:43 145.865
Gurwin Techsat 1B 19 Oct 13:48:02 13:53:19 74° 73° (ENE) 13:58:39 435.225
SO-50 19 Oct 13:52:40 13:54:30 12° 26° (NNE) 13:56:20 436.795
ITAMSAT 1 19 Oct 14:00:23 14:02:06 12° 54° (NE) 14:03:48 435.822/435.867
AO-85 19 Oct 14:05:19 14:09:07 60° 122° (ESE) 14:13:04 145.980
VELOX 1 19 Oct 14:06:18 14:10:44 74° 286° (WNW) 14:15:09 145.980
UKube-1 19 Oct 14:07:33 14:10:40 19° 93° (E) 14:13:46 .
BUGSAT 1 19 Oct 14:07:36 14:10:56 22° 266° (W) 14:14:17 437.445
ESTCUBE 1 19 Oct 14:13:18 14:15:42 14° 300° (WNW) 14:18:07 437.505/2401.250
50 SAT 19 Oct 14:13:41 14:16:50 39° 99° (E) 14:19:57 437.505
nSIGHT-1 19 Oct 14:36:08 14:38:56 26° 6° (N) 14:41:43 .
BEESAT 2 19 Oct 15:01:31 15:05:03 29° 316° (NW) 15:08:39 435.950
BEESAT 19 Oct 15:04:52 15:06:03 11° 87° (E) 15:07:15 436.000
ISS 19 Oct 15:06:07 15:09:05 30° 11° (N) 15:12:01 437.550
Oscar 19 19 Oct 15:07:50 15:11:06 17° 270° (W) 15:14:22 437.125/150
SPROUT 19 Oct 15:08:06 15:10:13 14° 300° (WNW) 15:12:20 437.525
AO-7 19 Oct 15:12:31 15:20:47 75° 67° (ENE) 15:29:04 .
DX 1 19 Oct 15:16:17 15:20:34 54° 289° (WNW) 15:24:50 434.975-435.025
BEESAT 3 19 Oct 15:24:31 15:25:26 11° 331° (NNW) 15:26:22 437.485
Gurwin Techsat 1B 19 Oct 15:30:41 15:33:50 16° 271° (W) 15:37:00 435.225
SO-50 19 Oct 15:31:39 15:36:06 46° 48° (NE) 15:40:35 436.795
ITAMSAT 1 19 Oct 15:35:28 15:40:37 71° 72° (ENE) 15:45:50 435.822/435.867
UKube-1 19 Oct 15:42:46 15:46:53 44° 290° (WNW) 15:50:59 .
AO-85 19 Oct 15:47:03 15:49:54 19° 323° (NW) 15:52:50 145.980
50 SAT 19 Oct 15:47:09 15:48:49 13° 296° (WNW) 15:50:29 437.505
MOZHAYETS 4 19 Oct 16:04:26 16:08:54 48° 99° (E) 16:13:18
nSIGHT-1 19 Oct 16:12:25 16:15:37 63° 25° (NNE) 16:18:47 .
CUBESAT XI-V 19 Oct 16:14:04 16:16:37 15° 89° (E) 16:19:09 437.345
ITUPSAT 1 19 Oct 16:23:26 16:28:13 63° 102° (ESE) 16:32:57 437.325
BEESAT 19 Oct 16:39:41 16:44:30 89° 277° (W) 16:49:17 436.000
PCSat 19 Oct 16:40:30 16:45:06 27° 43° (NE) 16:49:41 145.827
ISS 19 Oct 16:42:33 16:45:50 87° 208° (SSW) 16:49:07 437.550
DOVE 4 19 Oct 16:49:04 16:52:58 39° 70° (ENE) 16:57:03 437.250
XW-2F 19 Oct 17:04:44 17:06:24 13° 62° (ENE) 17:08:03 145.980 - 146.000
LilacSat-2 19 Oct 17:07:01 17:09:18 15° 64° (ENE) 17:11:35 437.200
AO-7 19 Oct 17:07:39 17:14:17 26° 267° (W) 17:20:58 .
SO-50 19 Oct 17:12:32 17:16:20 25° 246° (WSW) 17:20:08 436.795
XW-2D 19 Oct 17:15:13 17:17:49 18° 65° (ENE) 17:20:25 145.860 - 145.880
ITAMSAT 1 19 Oct 17:17:28 17:20:36 16° 270° (W) 17:23:46 435.822/435.867
NUDT-PHONESAT 19 Oct 17:20:18 17:22:16 14° 64° (ENE) 17:24:14 437.300
XW-2B 19 Oct 17:28:07 17:31:10 23° 67° (ENE) 17:34:12 145.730 - 145.750
CUTE-I 19 Oct 17:37:35 17:42:20 35° 66° (ENE) 17:47:08 437.470
KKS-1 19 Oct 17:39:11 17:43:10 30° 96° (E) 17:47:06 437.445
MOZHAYETS 4 19 Oct 17:42:21 17:45:42 20° 297° (WNW) 17:49:03
nSIGHT-1 19 Oct 17:49:09 17:51:39 21° 223° (SW) 17:54:08 .
CUBESAT XI-V 19 Oct 17:49:52 17:54:25 64° 287° (WNW) 17:58:58 437.345
XW-2C 19 Oct 17:50:39 17:54:14 41° 72° (ENE) 17:57:50 145.795 - 145.815
ITUPSAT 1 19 Oct 18:02:22 18:05:33 18° 300° (WNW) 18:08:43 437.325
HO-68 19 Oct 18:03:24 18:09:38 34° 60° (ENE) 18:15:56 435.675
STARS 19 Oct 18:14:49 18:18:42 29° 96° (E) 18:22:34 437.465
CUTE 1.7 + AOD 2 19 Oct 18:18:31 18:21:43 21° 65° (ENE) 18:24:55 437.475
BEESAT 19 Oct 18:19:27 18:21:32 13° 303° (WNW) 18:23:37 436.000
ISS 19 Oct 18:20:09 18:21:52 14° 227° (SW) 18:23:36 437.550
PCSat 19 Oct 18:23:32 18:28:53 60° 243° (WSW) 18:34:11 145.827
DOVE 4 19 Oct 18:27:48 18:30:53 20° 269° (W) 18:34:04 437.250
SEEDS 19 Oct 18:28:06 18:30:49 17° 63° (ENE) 18:33:31 437.485
KAITUO 1B 19 Oct 18:36:09 18:39:54 75° 258° (WSW) 18:43:38 145.475/437.950
XW-2F 19 Oct 18:36:19 18:40:02 58° 259° (W) 18:43:47 145.980 - 146.000
LilacSat-2 19 Oct 18:39:31 18:43:13 46° 261° (W) 18:46:56 437.200
XW-2D 19 Oct 18:48:10 18:51:44 38° 262° (W) 18:55:18 145.860 - 145.880
NUDT-PHONESAT 19 Oct 18:52:06 18:55:44 49° 261° (W) 18:59:21 437.300
AAUSAT CUBESAT 2 19 Oct 18:55:19 18:57:38 15° 63° (ENE) 18:59:58 437.432
XW-2B 19 Oct 19:01:54 19:05:13 28° 264° (W) 19:08:32 145.730 - 145.750
CUBEBUG 2 19 Oct 19:07:37 19:12:01 42° 70° (ENE) 19:16:32 437.445
XW-2A 19 Oct 19:07:38 19:10:18 22° 68° (ENE) 19:13:00 145.665 - 145.685
AO-73 19 Oct 19:08:17 19:10:39 14° 60° (ENE) 19:13:01 145.935
KKS-1 19 Oct 19:15:45 19:19:40 30° 293° (WNW) 19:23:34 437.445
CUTE-I 19 Oct 19:17:31 19:22:21 35° 263° (W) 19:27:13 437.470
XW-2C 19 Oct 19:26:17 19:28:36 15° 268° (W) 19:30:56 145.795 - 145.815
YUBILEINY 19 Oct 19:28:08 19:35:00 24° 61° (ENE) 19:41:50 435.215
ZACube-1 19 Oct 19:28:14 19:31:53 24° 65° (ENE) 19:35:31 437.345
UWE-3 19 Oct 19:47:27 19:52:02 63° 73° (ENE) 19:56:41 435.000/436.395/437.385
HO-68 19 Oct 19:50:04 19:57:04 55° 259° (W) 20:04:08 435.675
STARS 19 Oct 19:51:07 19:55:00 30° 293° (WNW) 19:58:53 437.465
CUTE 1.7 + AOD 2 19 Oct 19:53:21 19:57:19 39° 263° (W) 20:01:17 437.475
STRAND 1 19 Oct 19:55:24 20:00:01 32° 96° (E) 20:04:35 437.568
SEEDS 19 Oct 20:02:04 20:06:08 49° 261° (W) 20:10:12 437.485
Oscar 11 19 Oct 20:06:21 20:10:14 33° 69° (ENE) 20:14:07 .
FO-29 19 Oct 20:12:08 20:15:03 13° 85° (E) 20:18:03 435.910
BEESAT 3 19 Oct 20:20:29 20:23:49 25° 42° (NE) 20:27:07 437.485
AAUSAT CUBESAT 2 19 Oct 20:28:37 20:32:39 56° 260° (W) 20:36:42 437.432
DELFI C3 19 Oct 20:31:47 20:33:42 13° 62° (ENE) 20:35:38 145.870
XW-2A 19 Oct 20:40:06 20:42:55 24° 264° (W) 20:45:45 145.665 - 145.685
AO-73 19 Oct 20:41:42 20:46:16 76° 257° (WSW) 20:50:52 145.935
CUBEBUG 2 19 Oct 20:45:05 20:48:47 23° 268° (W) 20:52:35 437.445
AO-85 19 Oct 20:53:56 20:57:06 19° 37° (NE) 21:00:24 145.980
ZACube-1 19 Oct 21:03:35 21:07:54 41° 262° (W) 21:12:16 437.345
YUBILEINY 19 Oct 21:24:06 21:32:56 83° 264° (W) 21:41:45 435.215
O/OREOS (USA 219) 19 Oct 21:26:02 21:30:36 78° 112° (ESE) 21:35:12 437.305
UWE-3 19 Oct 21:26:07 21:28:53 16° 271° (W) 21:31:42 435.000/436.395/437.385
EO-88 19 Oct 21:26:45 21:29:49 26° 69° (ENE) 21:32:55 145.990 - 145.960
Max Valier Satellite 19 Oct 21:34:08 21:37:42 43° 72° (ENE) 21:41:16 145.860
STRAND 1 19 Oct 21:34:30 21:39:12 36° 293° (WNW) 21:43:51 437.568
BEESAT 2 19 Oct 21:38:51 21:42:44 43° 48° (NE) 21:46:34 435.950
Oscar 11 19 Oct 21:42:47 21:46:23 25° 266° (W) 21:50:00 .
FO-29 19 Oct 21:54:13 22:01:01 69° 102° (ESE) 22:08:33 435.910
BEESAT 3 19 Oct 21:57:46 22:01:30 40° 241° (WSW) 22:05:10 437.485
ESTCUBE 1 19 Oct 22:03:42 22:04:39 11° 57° (ENE) 22:05:35 437.505/2401.250
DELFI C3 19 Oct 22:04:09 22:07:59 58° 260° (W) 22:11:51 145.870
UNISAT 6 19 Oct 22:15:03 22:19:03 28° 94° (E) 22:22:56 437.425
LO-87 19 Oct 22:19:47 22:21:59 16° 65° (ENE) 22:24:11 145.935 - 145.965
TIGRISAT 19 Oct 22:29:53 22:34:10 36° 96° (E) 22:38:19 435.000
AO-85 19 Oct 22:33:29 22:38:01 84° 235° (SW) 22:42:54 145.980
EO-88 19 Oct 23:00:30 23:03:26 23° 265° (W) 23:06:23 145.990 - 145.960
O/OREOS (USA 219) 19 Oct 23:07:50 23:10:36 16° 312° (NW) 23:13:23 437.305
Max Valier Satellite 19 Oct 23:09:39 23:11:45 14° 269° (W) 23:13:51 145.860
BEESAT 2 19 Oct 23:17:07 23:20:12 21° 247° (WSW) 23:23:15 435.950
YUBILEINY 19 Oct 23:22:56 23:28:19 18° 285° (WNW) 23:33:44 435.215
AIST 2D 19 Oct 23:25:11 23:27:13 15° 92° (E) 23:29:13 435.315
RS-15 19 Oct 23:26:54 23:35:08 21° 98° (E) 23:43:20 29.354- 29.394
VELOX 1 19 Oct 23:31:09 23:33:39 15° 61° (ENE) 23:36:10 145.980
PRISM 19 Oct 23:33:42 23:37:50 78° 103° (ESE) 23:41:58 437.425
ESTCUBE 1 19 Oct 23:36:11 23:40:41 82° 74° (ENE) 23:45:11 437.505/2401.250
FO-29 19 Oct 23:40:08 23:45:38 28° 299° (WNW) 23:51:35 435.910
QB50P2 19 Oct 23:46:58 23:48:50 13° 89° (E) 23:50:43 145.880/145.840
NANOSAT C BR1 19 Oct 23:51:30 23:52:44 11° 88° (E) 23:53:57 145.865
UNISAT 6 19 Oct 23:51:36 23:55:45 33° 292° (WNW) 23:59:50 437.425
LO-87 19 Oct 23:51:40 23:55:04 40° 262° (W) 23:58:31 145.935 - 145.965
DUCHIFAT 1 20 Oct 00:02:02 00:03:58 13° 89° (E) 00:05:52 145.980
TIGRISAT 20 Oct 00:06:50 00:10:41 27° 294° (WNW) 00:14:28 435.000
AO-85 20 Oct 00:16:18 00:17:50 11° 251° (WSW) 00:19:23 145.980
SPROUT 20 Oct 00:25:25 00:29:39 69° 75° (ENE) 00:33:57 437.525
DX 1 20 Oct 00:38:52 00:41:56 19° 63° (ENE) 00:45:01 434.975-435.025
50 SAT 20 Oct 00:44:47 00:47:08 19° 67° (ENE) 00:49:30 437.505
EO-79 20 Oct 00:56:00 01:00:15 61° 101° (E) 01:04:27 145.935-145.965
AIST 2D 20 Oct 00:57:20 01:00:33 35° 288° (WNW) 01:03:44 435.315
POLYITAN 1 20 Oct 01:00:32 01:04:49 69° 101° (E) 01:09:02 437.675
UKube-1 20 Oct 01:03:57 01:07:16 22° 64° (ENE) 01:10:36 .
VELOX 1 20 Oct 01:05:15 01:09:35 64° 258° (WSW) 01:13:59 145.980
PRISM 20 Oct 01:11:03 01:12:31 12° 301° (WNW) 01:13:58 437.425
ESTCUBE 1 20 Oct 01:16:58 01:18:04 11° 272° (W) 01:19:09 437.505/2401.250
QB50P2 20 Oct 01:20:49 01:25:04 65° 287° (WNW) 01:29:17 145.880/145.840
NANOSAT C BR1 20 Oct 01:24:41 01:28:57 74° 285° (WNW) 01:33:10 145.865
RS-15 20 Oct 01:33:18 01:45:34 77° 120° (ESE) 01:57:49 29.354- 29.394
DUCHIFAT 1 20 Oct 01:35:49 01:40:02 64° 287° (WNW) 01:44:12 145.980
Oscar 19 20 Oct 01:36:22 01:40:03 20° 91° (E) 01:43:43 437.125/150
BUGSAT 1 20 Oct 01:46:00 01:50:05 43° 99° (E) 01:54:05 437.445
ITUPSAT 1 20 Oct 01:57:23 01:59:41 13° 57° (ENE) 02:01:58 437.325
Gurwin Techsat 1B 20 Oct 02:02:35 02:06:53 24° 93° (E) 02:11:10 435.225
SPROUT 20 Oct 02:04:20 02:06:02 12° 271° (W) 02:07:43 437.525
BEESAT 20 Oct 02:12:11 02:15:25 18° 60° (ENE) 02:18:39 436.000
DX 1 20 Oct 02:13:38 02:17:48 46° 261° (W) 02:22:00 434.975-435.025
50 SAT 20 Oct 02:16:33 02:19:18 25° 264° (W) 02:22:05 437.505
EO-79 20 Oct 02:33:06 02:35:31 15° 299° (WNW) 02:37:56 145.935-145.965
POLYITAN 1 20 Oct 02:37:54 02:40:02 14° 300° (WNW) 02:42:10 437.675
UKube-1 20 Oct 02:39:02 02:43:03 39° 261° (W) 02:47:07 .
M-CUBED/EXP-1 PRIME 20 Oct 02:44:59 02:48:25 50° 106° (ESE) 02:52:06 437.505
MOZHAYETS 4 20 Oct 03:07:57 03:12:30 60° 72° (ENE) 03:17:05
AO-7 20 Oct 03:12:56 03:18:42 20° 90° (E) 03:24:27 .
Oscar 19 20 Oct 03:14:43 03:19:45 57° 289° (WNW) 03:24:44 437.125/150
CUBESAT XI-V 20 Oct 03:19:12 03:22:31 20° 63° (ENE) 03:25:48 437.345
BUGSAT 1 20 Oct 03:22:04 03:25:07 20° 296° (WNW) 03:28:08 437.445
ITUPSAT 1 20 Oct 03:31:58 03:36:48 88° 255° (WSW) 03:41:39 437.325
NO-84 20 Oct 03:37:10 03:41:10 37° 134° (SE) 03:45:06 435.350 FM
Gurwin Techsat 1B 20 Oct 03:41:57 03:47:05 49° 291° (WNW) 03:52:10 435.225
ITAMSAT 1 20 Oct 03:46:51 03:50:45 21° 92° (E) 03:54:39 435.822/435.867
RS-15 20 Oct 03:47:33 03:59:13 45° 327° (NNW) 04:10:45 29.354- 29.394
BEESAT 20 Oct 03:47:59 03:52:43 61° 258° (WSW) 03:57:29 436.000
M-CUBED/EXP-1 PRIME 20 Oct 04:20:44 04:22:34 14° 301° (WNW) 04:24:27 437.505
KKS-1 20 Oct 04:39:04 04:43:06 36° 68° (ENE) 04:47:12 437.445
DOVE 4 20 Oct 04:46:59 04:48:27 11° 87° (E) 04:49:55 437.250
MOZHAYETS 4 20 Oct 04:47:12 04:50:02 16° 270° (W) 04:52:53
CUBESAT XI-V 20 Oct 04:55:00 04:59:31 51° 261° (W) 05:04:02 437.345
AO-7 20 Oct 05:04:11 05:12:33 89° 115° (ESE) 05:20:53 .
STARS 20 Oct 05:13:12 05:17:09 34° 68° (ENE) 05:21:09 437.465
ITUPSAT 1 20 Oct 05:14:24 05:15:19 10° 273° (W) 05:16:14 437.325
NO-84 20 Oct 05:14:24 05:18:34 47° 332° (NNW) 05:22:36 435.350 FM
ITAMSAT 1 20 Oct 05:25:26 05:30:33 56° 290° (WNW) 05:35:40 435.822/435.867
CUTE-I 20 Oct 05:54:51 05:56:01 11° 86° (E) 05:57:09 437.470
O/OREOS (USA 219) 20 Oct 05:55:04 05:59:00 27° 55° (NE) 06:02:55 437.305
RS-15 20 Oct 06:05:27 06:15:51 30° 0° (N) 06:25:55 29.354- 29.394
XW-2F 20 Oct 06:07:50 06:09:14 12° 90° (E) 06:10:38 145.980 - 146.000
LilacSat-2 20 Oct 06:11:24 06:13:40 15° 91° (E) 06:15:56 437.200
KKS-1 20 Oct 06:16:09 06:19:45 24° 266° (W) 06:23:23 437.445
XW-2D 20 Oct 06:18:53 06:21:28 18° 92° (E) 06:24:03 145.860 - 145.880
NUDT-PHONESAT 20 Oct 06:21:25 06:23:04 13° 90° (E) 06:24:42 437.300
DOVE 4 20 Oct 06:21:45 06:26:44 85° 103° (ESE) 06:31:55 437.250
XW-2B 20 Oct 06:31:56 06:35:01 24° 94° (E) 06:38:04 145.730 - 145.750
STARS 20 Oct 06:49:53 06:53:32 25° 265° (W) 06:57:13 437.465
NO-84 20 Oct 06:53:24 06:56:44 22° 352° (N) 06:59:56 435.350 FM
XW-2C 20 Oct 06:54:46 06:58:23 44° 99° (E) 07:01:58 145.795 - 145.815
AO-7 20 Oct 06:58:00 07:04:20 25° 311° (NW) 07:10:41 .
STRAND 1 20 Oct 07:13:09 07:18:09 56° 71° (ENE) 07:23:13 437.568
HO-68 20 Oct 07:15:39 07:21:38 27° 93° (E) 07:27:33 435.675
PCSat 20 Oct 07:27:36 07:29:41 12° 102° (ESE) 07:31:46 145.827
SO-50 20 Oct 07:27:47 07:32:11 61° 122° (ESE) 07:36:38 436.795
CUTE-I 20 Oct 07:31:29 07:36:54 79° 103° (ESE) 07:42:17 437.470
O/OREOS (USA 219) 20 Oct 07:34:14 07:38:30 38° 254° (WSW) 07:42:44 437.305
CUTE 1.7 + AOD 2 20 Oct 07:35:49 07:39:30 29° 95° (E) 07:43:10 437.475
UWE-3 20 Oct 07:37:32 07:38:43 11° 86° (E) 07:39:55 435.000/436.395/437.385
KAITUO 1B 20 Oct 07:38:46 07:42:27 71° 285° (WNW) 07:46:07 145.475/437.950
XW-2F 20 Oct 07:40:02 07:43:41 53° 286° (WNW) 07:47:17 145.980 - 146.000
SEEDS 20 Oct 07:43:52 07:47:09 22° 93° (E) 07:50:26 437.485
LilacSat-2 20 Oct 07:44:35 07:48:09 41° 288° (WNW) 07:51:41 437.200
XW-2D 20 Oct 07:52:20 07:55:46 35° 289° (WNW) 07:59:10 145.860 - 145.880
NUDT-PHONESAT 20 Oct 07:53:39 07:57:12 47° 287° (WNW) 08:00:43 437.300
XW-2A 20 Oct 07:59:38 08:01:47 16° 93° (E) 08:03:55 145.665 - 145.685
DOVE 4 20 Oct 08:01:09 08:03:47 15° 300° (WNW) 08:06:30 437.250
XW-2B 20 Oct 08:06:00 08:09:09 26° 292° (WNW) 08:12:18 145.730 - 145.750
AAUSAT CUBESAT 2 20 Oct 08:08:59 08:11:56 19° 92° (E) 08:14:52 437.432
